Wind_Speed
37 37 40 40 33 28 35 36 27 39 40 28 18 17 13 16 18 19 19 20 20 20 19 19 24 27 27 23 24 23 22 22 21 19 19 17 18 19 21 18 17 17 24 24
48 32 25 32 43 38 32 33 38 36 34 21 17 9 14 21 20 19 19 20 21 20 19 20 20 21 25 26 26 25 24 23 21 19 19 17 16 18 18 18 13 12 9 15
24 27 32 26 7 14 30 21 19 25 24 10 4 11 16 25 24 26 26 25 22 22 22 20 20 21 19 22 23 23 23 23 22 19 18 16 15 16 15 15 13 15 14 8
24 29 2 8 22 34 21 16 15 19 7 8 16 22 26 26 30 31 33 29 24 23 22 22 20 19 20 19 19 20 20 21 21 19 18 16 14 14 13 14 15 17 10 6
9 9 26 26 13 12 21 25 27 3 13 29 36 40 36 39 38 34 31 33 33 27 24 22 22 21 20 20 19 18 18 19 19 17 16 14 13 13 13 11 10 11 12 13
13 8 6 4 21 30 28 24 8 10 30 50 44 50 47 42 44 40 34 36 38 36 27 25 24 25 21 20 20 20 19 18 18 17 15 14 13 13 13 11 9 8 8 8
34 16 18 23 21 20 9 5 17 36 51 54 48 51 49 45 40 34 30 33 32 34 32 25 26 25 22 21 19 23 19 19 17 17 17 16 14 14 14 13 10 8 5 3
19 13 15 16 14 10 17 34 51 55 52 52 44 38 42 42 41 42 37 36 35 31 29 25 24 26 22 21 21 22 21 20 20 18 18 18 16 14 13 12 11 10 8 7
31 39 35 40 48 50 53 51 52 46 39 35 43 50 49 50 47 46 42 38 34 36 30 25 27 27 25 20 27 25 20 21 21 21 19 18 19 18 17 15 14 13 12 12
43 49 45 44 48 50 44 38 36 41 51 52 54 53 52 51 48 48 42 41 35 37 39 33 31 30 27 26 28 30 26 22 22 22 22 21 19 19 20 19 18 18 17 16
61 54 55 52 35 31 38 46 50 47 45 47 44 48 49 52 49 48 46 43 43 41 40 44 37 38 35 32 33 34 30 29 25 23 23 23 22 21 21 21 21 21 21 20
62 50 52 50 47 43 45 42 45 46 48 47 48 48 46 49 49 49 48 44 43 41 44 40 45 38 34 34 32 35 32 29 28 25 24 24 24 24 23 21 21 21 22 21
54 49 54 50 43 38 41 44 46 45 44 46 44 44 44 45 46 46 45 43 43 43 46 41 38 40 34 34 34 35 36 32 30 30 27 25 25 25 24 23 22 21 21 20
40 43 45 40 47 46 44 44 44 44 41 40 42 45 44 47 46 42 40 39 37 37 44 39 39 37 40 37 39 36 35 36 34 32 31 27 26 26 26 24 23 23 21 21
36 43 50 50 45 43 44 41 38 39 39 38 38 44 45 44 41 39 39 40 39 39 38 35 35 37 37 40 39 38 34 33 34 33 31 29 28 28 27 25 24 23 22 22
50 43 33 36 41 41 37 31 36 38 37 38 37 39 42 43 45 44 42 41 42 41 40 38 36 34 38 42 41 37 34 29 30 32 32 30 29 28 26 24 23 23 23 22
32 34 34 32 31 34 34 35 35 33 44 41 35 32 33 36 37 37 36 37 39 36 36 33 29 35 34 37 42 37 34 31 28 31 32 30 27 26 25 24 23 23 23 22
26 24 18 26 31 22 27 33 26 25 34 37 35 36 37 31 27 26 28 30 30 27 28 29 30 28 30 30 41 33 29 30 31 30 29 27 26 26 26 25 24 23 23 23
24 26 21 17 23 24 29 37 40 32 34 35 39 39 32 27 29 31 25 22 22 20 20 19 18 20 19 18 26 29 23 24 26 26 26 27 27 27 26 24 23 23 23 22
33 32 30 30 28 28 29 31 33 29 31 35 39 40 31 27 28 21 15 12 14 15 13 10 11 11 15 18 14 12 17 22 21 23 26 26 25 25 25 24 22 22 21 21
43 39 33 32 32 30 30 35 32 29 30 33 32 33 30 23 16 14 11 9 10 9 8 7 4 4 4 9 13 14 16 19 22 23 22 22 23 23 23 21 21 20 20 19
50 42 37 35 36 35 30 30 32 32 34 30 31 32 28 24 19 16 14 16 16 15 14 12 10 7 4 5 7 9 12 15 16 18 19 21 21 21 20 19 18 18 17 17
42 39 38 37 37 37 38 34 31 30 32 30 30 29 27 28 25 18 18 17 20 22 20 15 10 12 16 11 9 9 11 14 17 17 18 19 19 18 17 18 17 16 16 16
41 40 39 39 38 38 40 39 34 31 30 32 31 31 29 24 25 23 24 26 26 20 11 12 10 4 3 1 2 3 6 10 12 13 15 16 15 15 14 14 15 15 16 16
42 42 44 44 45 43 41 37 34 34 28 31 31 31 29 26 24 24 19 21 19 9 11 11 9 7 5 3 3 5 6 7 8 10 11 11 11 11 11 12 13 14 13 11
47 50 50 48 46 42 37 35 34 33 31 31 29 30 29 25 22 24 21 21 9 9 9 8 7 5 3 1 4 5 6 7 8 8 8 8 9 9 10 10 10 8 7 9
45 38 37 39 39 35 32 32 36 35 33 31 28 28 29 26 21 24 19 18 7 7 8 7 5 3 1 2 5 6 6 6 6 7 7 7 7 7 7 6 6 7 9 12
Wind_Direction
295 300 301 295 288 282 262 262 250 284 290 325 340 333 338 337 335 336 330 321 318 314 309 298 279 269 268 273 279 287 296 301 309 317 326 339 353 4 349 330 311 295 274 260
299 314 308 298 300 295 281 271 266 283 291 333 326 335 4 355 345 340 339 338 327 316 311 309 301 283 270 268 272 277 283 290 299 309 314 326 339 350 8 6 349 9 333 304
292 300 308 303 351 324 318 299 291 279 319 331 9 343 335 337 335 330 326 328 323 320 313 306 303 301 290 272 270 274 280 286 291 297 299 309 321 331 351 6 0 344 25 15
284 302 256 287 311 306 304 316 303 313 336 7 339 332 332 331 324 323 317 317 319 312 311 307 300 299 294 288 280 277 277 279 283 286 290 297 309 314 322 335 356 10 10 357
265 259 286 306 299 321 320 308 300 189 0 342 330 322 318 321 317 318 308 308 310 307 301 301 299 289 289 290 286 281 278 278 277 278 281 283 285 294 305 318 332 341 353 14
249 259 245 303 310 303 305 314 127 331 327 327 326 322 324 318 313 311 300 297 301 299 291 291 289 287 285 285 286 287 282 279 278 276 275 274 276 282 287 296 305 317 331 349
243 257 273 299 294 302 269 298 311 312 315 317 314 307 302 302 304 305 298 299 298 304 291 285 283 277 282 277 282 276 280 280 275 273 271 270 269 272 277 282 286 288 295 325
235 234 280 296 267 268 286 293 297 301 301 300 297 301 298 294 297 301 293 290 290 293 296 282 281 275 271 280 274 272 278 277 279 273 269 267 265 263 263 266 271 274 279 282
265 268 275 276 287 289 288 292 297 299 296 295 293 294 292 291 293 290 292 293 285 281 285 279 284 280 274 269 275 276 273 273 271 274 271 267 266 265 261 258 260 262 265 270
277 282 284 288 291 297 297 292 291 296 297 292 289 289 289 290 289 286 281 283 286 275 270 275 278 275 279 269 266 270 273 270 269 268 269 267 260 259 262 263 263 264 265 268
286 285 295 300 301 298 294 297 294 293 290 293 300 298 296 292 288 283 282 281 288 281 270 271 273 271 272 271 266 266 266 267 266 266 265 266 266 261 256 255 258 261 263 264
281 294 299 295 292 304 298 299 297 300 298 296 299 298 296 293 293 290 285 283 283 278 280 282 264 266 265 265 262 262 261 260 266 264 262 261 261 263 261 258 257 258 260 263
293 303 293 298 302 303 298 300 302 302 302 303 302 302 299 294 289 287 283 284 286 283 281 284 287 263 265 265 262 257 260 259 260 263 262 260 259 257 258 259 259 258 257 258
294 298 299 300 300 302 303 304 303 303 303 300 293 289 290 291 288 286 283 284 283 282 281 281 275 284 260 262 261 258 257 259 254 254 259 258 258 257 256 257 256 257 258 259
286 292 298 298 299 301 301 306 308 306 305 300 292 288 287 286 285 284 284 284 281 280 284 284 280 273 273 253 256 255 254 256 254 250 252 255 254 254 256 257 259 256 254 253
294 298 296 291 293 297 298 304 309 307 306 299 294 292 290 289 284 281 277 278 279 280 281 283 286 278 277 260 245 245 246 249 247 246 246 248 251 253 255 258 260 262 262 262
293 294 290 283 291 295 298 312 309 295 313 316 299 298 297 293 286 283 281 278 279 281 280 284 278 285 289 265 238 237 239 242 245 242 243 247 250 250 251 253 257 259 261 263
282 277 282 289 294 310 318 326 323 320 327 330 329 304 308 303 298 286 284 284 282 275 277 276 285 284 285 260 236 229 233 235 237 235 238 243 246 246 248 251 256 258 260 261
317 338 319 336 327 317 316 314 315 313 322 336 334 330 319 307 304 299 281 277 281 280 278 276 282 280 271 270 245 226 218 224 224 227 235 241 242 245 249 254 258 259 261 263
331 329 328 327 324 329 316 309 305 313 320 331 340 330 322 315 310 303 294 275 260 274 273 270 273 292 265 259 264 253 235 224 219 227 233 240 244 248 250 254 258 261 263 264
320 318 316 318 315 318 317 320 306 309 312 323 331 333 321 315 309 301 300 297 271 249 231 210 235 257 260 239 223 230 231 228 229 235 241 245 248 248 252 256 259 262 262 261
307 309 311 315 316 314 310 312 311 305 305 315 325 323 329 319 310 311 306 296 296 297 295 289 254 201 186 227 233 229 222 224 231 238 244 248 247 249 252 256 259 258 258 261
297 300 302 304 305 306 304 299 300 297 298 308 315 320 315 323 323 316 307 305 314 317 313 302 283 248 219 215 203 218 235 236 237 241 241 241 242 245 250 252 252 252 255 259
296 296 298 300 299 296 294 297 291 288 287 295 306 315 321 309 328 322 303 305 315 314 333 349 355 352 284 266 264 258 235 223 221 226 231 234 238 242 245 246 248 253 258 261
298 296 297 298 296 293 287 280 279 279 275 277 294 304 314 304 311 325 320 317 316 342 354 325 320 308 275 226 213 214 212 208 212 217 224 231 236 242 246 247 250 252 252 256
297 298 297 294 294 295 285 274 264 262 265 265 278 295 303 309 298 316 319 320 333 345 332 346 358 349 320 227 183 180 188 197 210 219 220 222 227 233 238 243 243 240 247 264
301 300 299 296 296 300 285 274 259 255 253 257 263 284 295 304 315 313 312 315 328 331 331 336 350 360 0 144 153 171 187 199 211 220 221 222 224 226 220 220 233 251 267 279
Height
3067 3064 3062 3054 3051 3053 3049 3048 3048 3029 3027 3025 3025 3022 3020 3017 3014 3012 3009 3006 3003 2999 2997 2995 2992 2992 2992 2991 2990 2989 2987 2985 2983 2980 2976 2973 2968 2963 2958 2951 2948 2946 2942 2943
3054 3056 3052 3043 3040 3038 3038 3036 3032 3028 3023 3025 3022 3021 3020 3017 3013 3010 3006 3004 3001 2997 2993 2991 2988 2986 2984 2984 2983 2983 2981 2979 2977 2975 2972 2969 2965 2961 2956 2952 2947 2942 2939 2938
3052 3050 3046 3037 3032 3031 3030 3028 3028 3024 3022 3020 3019 3018 3017 3014 3011 3008 3004 3000 2997 2994 2991 2987 2984 2982 2980 2977 2976 2975 2974 2973 2972 2971 2968 2966 2963 2960 2956 2953 2949 2945 2941 2936
3051 3049 3045 3032 3030 3028 3025 3024 3023 3020 3019 3018 3016 3014 3013 3010 3005 3003 3000 2996 2993 2989 2987 2984 2980 2977 2975 2974 2971 2969 2968 2967 2966 2965 2964 2962 2960 2957 2954 2952 2949 2945 2942 2939
3054 3045 3033 3031 3027 3026 3022 3022 3020 3018 3016 3014 3010 3006 3006 3003 3001 2998 2994 2990 2987 2984 2981 2979 2976 2972 2970 2969 2968 2965 2963 2962 2960 2960 2959 2958 2956 2954 2952 2950 2949 2946 2944 2941
3048 3045 3032 3025 3025 3023 3020 3015 3014 3014 3011 3008 3004 2997 2996 2994 2991 2989 2987 2982 2979 2977 2975 2973 2970 2968 2965 2964 2963 2962 2959 2957 2956 2955 2954 2953 2952 2951 2949 2947 2946 2945 2943 2942
3041 3037 3019 3024 3022 3018 3019 3017 3010 3007 3003 3000 2996 2996 2989 2987 2984 2981 2977 2974 2971 2968 2967 2965 2962 2960 2961 2958 2957 2955 2955 2954 2951 2950 2950 2949 2948 2947 2946 2945 2944 2943 2942 2941
3030 3029 3018 3018 3018 3018 3013 3010 3007 3004 2999 2992 2988 2984 2981 2978 2976 2973 2969 2967 2964 2959 2959 2958 2955 2953 2954 2954 2950 2948 2950 2948 2948 2946 2945 2945 2944 2943 2942 2942 2942 2941 2940 2939
3020 3011 3015 3013 3011 3010 3007 2999 2995 2990 2985 2981 2977 2974 2970 2966 2966 2963 2959 2957 2955 2952 2950 2951 2949 2947 2947 2948 2945 2944 2942 2943 2942 2942 2940 2939 2940 2940 2939 2938 2938 2938 2937 2937
3008 3003 3004 3005 3002 2998 2996 2987 2982 2979 2974 2970 2963 2960 2956 2954 2952 2949 2949 2945 2944 2940 2939 2939 2941 2939 2939 2939 2937 2936 2938 2936 2935 2935 2935 2934 2933 2934 2935 2935 2935 2935 2934 2934
2987 2991 2990 2991 2989 2984 2980 2977 2972 2968 2962 2956 2954 2949 2947 2940 2938 2936 2936 2935 2931 2928 2926 2926 2928 2928 2929 2929 2928 2927 2928 2929 2928 2928 2928 2928 2929 2928 2928 2928 2930 2930 2930 2930
2967 2987 2980 2977 2976 2973 2965 2962 2959 2955 2949 2948 2943 2936 2934 2929 2925 2922 2921 2921 2918 2916 2914 2913 2913 2914 2916 2916 2916 2917 2917 2920 2921 2921 2920 2921 2922 2922 2922 2922 2923 2923 2924 2925
2967 2972 2968 2961 2961 2960 2953 2950 2946 2941 2938 2932 2929 2925 2919 2914 2911 2907 2906 2905 2904 2903 2901 2901 2899 2900 2904 2906 2904 2905 2907 2910 2911 2912 2912 2913 2914 2915 2915 2915 2916 2916 2917 2917
2965 2958 2953 2954 2946 2946 2941 2937 2933 2929 2926 2921 2916 2911 2908 2901 2897 2895 2894 2894 2892 2891 2889 2889 2888 2887 2890 2892 2893 2892 2896 2899 2900 2902 2904 2904 2906 2907 2908 2909 2910 2910 2910 2911
2952 2951 2946 2940 2937 2935 2930 2926 2921 2917 2913 2909 2906 2899 2895 2890 2885 2883 2882 2881 2879 2877 2877 2875 2874 2875 2874 2875 2878 2881 2883 2886 2890 2892 2894 2896 2897 2898 2900 2901 2903 2904 2905 2905
2940 2939 2937 2932 2927 2924 2922 2918 2912 2907 2902 2896 2892 2888 2882 2876 2872 2870 2870 2868 2865 2865 2865 2863 2861 2862 2858 2859 2862 2866 2870 2874 2879 2882 2884 2886 2888 2890 2892 2894 2895 2896 2898 2899
2930 2928 2926 2924 2920 2917 2912 2909 2904 2899 2894 2887 2882 2877 2869 2863 2859 2857 2856 2854 2851 2851 2851 2850 2849 2847 2845 2844 2846 2852 2858 2863 2867 2871 2874 2878 2880 2882 2884 2886 2888 2889 2890 2891
2925 2919 2916 2913 2912 2908 2905 2901 2897 2893 2887 2880 2874 2868 2860 2854 2850 2847 2845 2844 2842 2841 2841 2839 2838 2836 2833 2832 2833 2839 2846 2852 2856 2861 2865 2869 2872 2875 2877 2879 2881 2883 2884 2884
2917 2913 2910 2906 2905 2902 2900 2895 2891 2887 2881 2874 2867 2860 2853 2847 2843 2839 2837 2836 2835 2834 2833 2831 2830 2828 2826 2825 2827 2829 2835 2841 2847 2852 2857 2860 2864 2867 2870 2873 2875 2876 2877 2877
2914 2911 2908 2903 2902 2899 2895 2892 2887 2881 2877 2870 2862 2856 2850 2843 2838 2835 2832 2830 2828 2827 2826 2824 2824 2823 2822 2822 2823 2825 2828 2833 2838 2844 2849 2853 2856 2860 2863 2865 2867 2868 2869 2870
2905 2904 2902 2899 2895 2892 2890 2886 2881 2876 2872 2867 2861 2855 2848 2842 2837 2833 2831 2829 2826 2824 2822 2820 2819 2818 2819 2819 2821 2823 2825 2830 2835 2840 2843 2846 2849 2853 2856 2858 2860 2861 2862 2863
2895 2893 2891 2887 2884 2883 2882 2880 2876 2872 2867 2862 2858 2853 2847 2842 2838 2835 2833 2831 2828 2826 2823 2821 2819 2817 2816 2817 2818 2821 2823 2826 2830 2833 2837 2840 2844 2847 2849 2851 2853 2855 2856 2857
2884 2883 2880 2878 2875 2873 2872 2871 2869 2865 2861 2857 2852 2849 2845 2840 2836 2832 2830 2827 2824 2820 2817 2815 2813 2813 2814 2815 2816 2818 2820 2823 2826 2829 2832 2836 2839 2841 2844 2845 2847 2849 2850 2851
2873 2871 2869 2867 2865 2863 2860 2860 2858 2856 2854 2850 2846 2843 2840 2836 2833 2829 2826 2823 2819 2815 2812 2810 2809 2809 2809 2810 2812 2814 2817 2819 2822 2826 2828 2831 2834 2836 2838 2840 2843 2844 2845 2846
2861 2858 2855 2852 2849 2848 2846 2845 2844 2844 2843 2842 2840 2837 2836 2832 2830 2826 2822 2819 2815 2811 2811 2810 2810 2809 2809 2810 2811 2813 2816 2818 2821 2824 2826 2828 2830 2832 2834 2836 2839 2840 2841 2842
2846 2842 2839 2836 2833 2831 2829 2830 2830 2831 2831 2831 2832 2830 2830 2828 2824 2822 2818 2816 2813 2811 2810 2809 2807 2808 2809 2810 2811 2813 2815 2817 2820 2822 2824 2826 2827 2829 2832 2834 2835 2837 2838 2839
2832 2828 2825 2822 2822 2819 2817 2816 2815 2817 2819 2820 2821 2823 2823 2821 2819 2816 2814 2813 2810 2810 2809 2809 2808 2809 2810 2811 2812 2814 2816 2817 2819 2821 2823 2824 2826 2828 2830 2831 2833 2834 2835 2835